Cape Coral, FL (33991)

11:23 PM EDT on July 29, 2015 (GMT -0400)
Veterans / Santa Barbara | | Change Station
CLOSE
Current Station
Personal Weather Station
Location: Cape Coral, FL
Elevation: 15 ft
Nearby Weather Stations

Elev 15 ft 26.62 °N, 81.97 °W | Updated 4 minutes ago

Clear
Clear
78.4 °F
Feels Like 81 °F
N
0.0
Wind Variable Wind from West
Gusts 0.0 mph

Today
High -- | Low -- °F
--% Chance of Precip.
Yesterday
High -- | Low -- °F
Precip. -- in
6:51 AM 8:17 PM
Waxing Gibbous, 98% visible
Pressure 30.01 in
Visibility 10.0 miles
Clouds Clear
Heat Index 81 °F
Dew Point 75 °F
Humidity 89%
Rainfall 0.54 in
Snow Depth Not available.
UV 0 out of 12
Pollen .90 out of 12
Air Quality Not available.
Flu Activity Not available.
METAR KFMY 300253Z AUTO 00000KT 10SM CLR 27/25 A3000 RMK AO2 SLP160 T02670250 51010 $

More Conditions Fewer Conditions

Pressure 30.01 in
Visibility 10.0 miles
Clouds Clear
Heat Index 81 °F
Dew Point 75 °F
Humidity 89%
Rainfall 0.54 in
Snow Depth Not available.
UV 0 out of 12
Pollen .90 out of 12
Air Quality Not available.
Flu Activity Not available.
METAR KFMY 300253Z AUTO 00000KT 10SM CLR 27/25 A3000 RMK AO2 SLP160 T02670250 51010 $

More Conditions Fewer Conditions

10-Day Weather Forecast

×

Almanac

Astronomy

Jul. 29, 2015 Rise Set
Actual Time
Civil Twilight
Nautical Twilight
Astronomical Twilight
Moon
Length of Visible Light
Length of Day
Tomorrow will be .
, % of the Moon is Illuminated

Today's Extremes

State Highs State Lows

Community

WunderPhotos

Upload Photos

1,842,288 photos uploaded!

WunderBlogs® & News

Nearby

Air Quality

  Air Quality AQ Index Pollutant
Not available.

Snow Depth

Station Depth Elevation

Earthquake Activity

City Distance Mag. Time & Date
Minimum magnitude displayed is 2.5.

Coastal Water Temperatures

Place Temperature

Stations

Nearby Weather Stations

Station Location Temp. Windchill Dew Point Humidity Wind Precip. Elev Updated Type